Time,TemperatureF,DewpointF,PressureIn,WindDirection,WindDirectionDegrees,WindSpeedMPH,WindSpeedGustMPH,Humidity,HourlyPrecipIn,Conditions,Clouds,dailyrainin,SoftwareType,DateUTC
2013-03-15 00:00:00,51.6,45.3,30.06,ENE,68,0.0,2.0,79,0.00,,,0.00,LWC V2.11 B50,2013-03-15 07:00:00,
2013-03-15 00:05:00,51.6,45.3,30.06,ENE,68,0.0,2.0,79,0.00,,,0.00,WeatherCatV1.15B25,2013-03-15 07:05:00,
2013-03-15 00:10:00,51.6,45.3,30.06,ENE,68,0.0,2.0,79,0.00,,,0.00,LWC V2.11 B50,2013-03-15 07:10:00,
2013-03-15 00:15:00,51.6,45.3,30.06,ENE,68,0.0,2.0,79,0.00,,,0.00,WeatherCatV1.15B25,2013-03-15 07:15:00,
2013-03-15 00:20:00,51.6,45.3,30.06,ENE,68,0.0,2.0,79,0.00,,,0.00,LWC V2.11 B50,2013-03-15 07:20:00,
2013-03-15 00:25:00,51.6,45.3,30.06,ENE,68,0.0,2.0,79,0.00,,,0.00,WeatherCatV1.15B25,2013-03-15 07:25:00,
2013-03-15 00:30:00,51.6,45.3,30.06,ENE,68,0.0,2.0,79,0.00,,,0.00,LWC V2.11 B50,2013-03-15 07:30:00,
2013-03-15 00:35:00,51.6,45.3,30.06,ENE,68,0.0,2.0,79,0.00,,,0.00,WeatherCatV1.15B25,2013-03-15 07:35:00,
2013-03-15 00:40:00,51.6,45.3,30.06,ENE,68,0.0,2.0,79,0.00,,,0.00,LWC V2.11 B50,2013-03-15 07:40:00,
2013-03-15 00:45:00,51.6,45.3,30.06,ENE,68,0.0,2.0,79,0.00,,,0.00,WeatherCatV1.15B25,2013-03-15 07:45:00,
2013-03-15 00:50:00,51.6,45.3,30.06,ENE,68,0.0,2.0,79,0.00,,,0.00,LWC V2.11 B50,2013-03-15 07:50:00,
2013-03-15 00:55:00,51.6,45.3,30.06,ENE,68,0.0,2.0,79,0.00,,,0.00,WeatherCatV1.15B25,2013-03-15 07:55:00,
2013-03-15 01:00:00,51.6,45.3,30.06,ENE,68,0.0,2.0,79,0.00,,,0.00,LWC V2.11 B50,2013-03-15 08:00:00,
2013-03-15 01:05:00,50.4,44.5,30.04,ENE,68,0.0,1.0,80,0.00,,,0.00,WeatherCatV1.15B25,2013-03-15 08:05:00,
2013-03-15 01:10:00,50.4,44.5,30.04,ENE,68,0.0,1.0,80,0.00,,,0.00,LWC V2.11 B50,2013-03-15 08:10:00,
2013-03-15 01:15:00,50.4,44.5,30.04,ENE,68,0.0,1.0,80,0.00,,,0.00,WeatherCatV1.15B25,2013-03-15 08:15:00,
2013-03-15 01:20:00,50.4,44.5,30.04,ENE,68,0.0,1.0,80,0.00,,,0.00,LWC V2.11 B50,2013-03-15 08:20:00,
2013-03-15 01:25:00,50.4,44.5,30.04,ENE,68,0.0,1.0,80,0.00,,,0.00,WeatherCatV1.15B25,2013-03-15 08:25:00,
2013-03-15 01:30:00,50.4,44.5,30.04,ENE,68,0.0,1.0,80,0.00,,,0.00,LWC V2.11 B50,2013-03-15 08:30:00,
2013-03-15 01:35:00,50.4,44.5,30.04,ENE,68,0.0,1.0,80,0.00,,,0.00,WeatherCatV1.15B25,2013-03-15 08:35:00,
2013-03-15 01:40:00,50.4,44.5,30.04,ENE,68,0.0,1.0,80,0.00,,,0.00,LWC V2.11 B50,2013-03-15 08:40:00,
2013-03-15 01:45:00,50.4,44.5,30.04,ENE,68,0.0,1.0,80,0.00,,,0.00,WeatherCatV1.15B25,2013-03-15 08:45:00,
2013-03-15 01:50:00,50.4,44.5,30.04,ENE,68,0.0,1.0,80,0.00,,,0.00,LWC V2.11 B50,2013-03-15 08:50:00,
2013-03-15 01:55:00,50.4,44.5,30.04,ENE,68,0.0,1.0,80,0.00,,,0.00,WeatherCatV1.15B25,2013-03-15 08:55:00,
2013-03-15 02:00:00,50.4,44.5,30.04,ENE,68,0.0,1.0,80,0.00,,,0.00,LWC V2.11 B50,2013-03-15 09:00:00,
2013-03-15 02:05:00,50.0,43.8,30.05,NE,45,0.0,1.0,79,0.00,,,0.00,WeatherCatV1.15B25,2013-03-15 09:05:00,
2013-03-15 02:10:00,50.0,43.8,30.05,NE,45,0.0,1.0,79,0.00,,,0.00,LWC V2.11 B50,2013-03-15 09:10:00,
2013-03-15 02:15:00,50.0,43.8,30.05,NE,45,0.0,1.0,79,0.00,,,0.00,WeatherCatV1.15B25,2013-03-15 09:15:00,
2013-03-15 02:20:00,50.0,43.8,30.05,NE,45,0.0,1.0,79,0.00,,,0.00,LWC V2.11 B50,2013-03-15 09:20:00,
2013-03-15 02:25:00,50.0,43.8,30.05,NE,45,0.0,1.0,79,0.00,,,0.00,WeatherCatV1.15B25,2013-03-15 09:25:00,
2013-03-15 02:30:00,50.0,43.8,30.05,NE,45,0.0,1.0,79,0.00,,,0.00,LWC V2.11 B50,2013-03-15 09:30:00,
2013-03-15 02:35:00,50.0,43.8,30.05,NE,45,0.0,1.0,79,0.00,,,0.00,WeatherCatV1.15B25,2013-03-15 09:35:00,
2013-03-15 02:40:00,50.0,43.8,30.05,NE,45,0.0,1.0,79,0.00,,,0.00,LWC V2.11 B50,2013-03-15 09:40:00,
2013-03-15 02:45:00,50.0,43.8,30.05,NE,45,0.0,1.0,79,0.00,,,0.00,WeatherCatV1.15B25,2013-03-15 09:45:00,
2013-03-15 02:50:00,50.0,43.8,30.05,NE,45,0.0,1.0,79,0.00,,,0.00,LWC V2.11 B50,2013-03-15 09:50:00,
2013-03-15 02:55:00,50.0,43.8,30.05,NE,45,0.0,1.0,79,0.00,,,0.00,WeatherCatV1.15B25,2013-03-15 09:55:00,
2013-03-15 03:00:00,50.0,43.8,30.05,NE,45,0.0,1.0,79,0.00,,,0.00,LWC V2.11 B50,2013-03-15 10:00:00,
2013-03-15 03:05:00,49.1,42.2,30.05,NE,45,0.0,1.0,77,0.00,,,0.00,WeatherCatV1.15B25,2013-03-15 10:05:00,
2013-03-15 03:10:00,49.1,42.2,30.05,NE,45,0.0,1.0,77,0.00,,,0.00,LWC V2.11 B50,2013-03-15 10:10:00,
2013-03-15 03:15:00,49.1,42.2,30.05,NE,45,0.0,1.0,77,0.00,,,0.00,WeatherCatV1.15B25,2013-03-15 10:15:00,
2013-03-15 03:20:00,49.1,42.2,30.05,NE,45,0.0,1.0,77,0.00,,,0.00,LWC V2.11 B50,2013-03-15 10:20:00,
2013-03-15 03:25:00,49.1,42.2,30.05,NE,45,0.0,1.0,77,0.00,,,0.00,WeatherCatV1.15B25,2013-03-15 10:25:00,
2013-03-15 03:30:00,49.1,42.2,30.05,NE,45,0.0,1.0,77,0.00,,,0.00,LWC V2.11 B50,2013-03-15 10:30:00,
2013-03-15 03:35:00,49.1,42.2,30.05,NE,45,0.0,1.0,77,0.00,,,0.00,WeatherCatV1.15B25,2013-03-15 10:35:00,
2013-03-15 03:40:00,49.1,42.2,30.05,NE,45,0.0,1.0,77,0.00,,,0.00,LWC V2.11 B50,2013-03-15 10:40:00,
2013-03-15 03:45:00,49.1,42.2,30.05,NE,45,0.0,1.0,77,0.00,,,0.00,WeatherCatV1.15B25,2013-03-15 10:45:00,
2013-03-15 03:50:00,49.1,42.2,30.05,NE,45,0.0,1.0,77,0.00,,,0.00,LWC V2.11 B50,2013-03-15 10:50:00,
2013-03-15 03:55:00,49.1,42.2,30.05,NE,45,0.0,1.0,77,0.00,,,0.00,WeatherCatV1.15B25,2013-03-15 10:55:00,
2013-03-15 04:00:00,49.1,42.2,30.05,NE,45,0.0,1.0,77,0.00,,,0.00,LWC V2.11 B50,2013-03-15 11:00:00,
2013-03-15 04:05:00,48.8,42.2,30.05,NE,45,0.0,1.0,78,0.00,,,0.00,WeatherCatV1.15B25,2013-03-15 11:05:00,
2013-03-15 04:10:00,48.8,42.2,30.05,NE,45,0.0,1.0,78,0.00,,,0.00,LWC V2.11 B50,2013-03-15 11:10:00,
2013-03-15 04:15:00,48.8,42.2,30.05,NE,45,0.0,1.0,78,0.00,,,0.00,WeatherCatV1.15B25,2013-03-15 11:15:00,
2013-03-15 04:20:00,48.8,42.2,30.05,NE,45,0.0,1.0,78,0.00,,,0.00,LWC V2.11 B50,2013-03-15 11:20:00,
2013-03-15 04:25:00,48.8,42.2,30.05,NE,45,0.0,1.0,78,0.00,,,0.00,WeatherCatV1.15B25,2013-03-15 11:25:00,
2013-03-15 04:30:00,48.8,42.2,30.05,NE,45,0.0,1.0,78,0.00,,,0.00,LWC V2.11 B50,2013-03-15 11:30:00,
2013-03-15 04:35:00,48.8,42.2,30.05,NE,45,0.0,1.0,78,0.00,,,0.00,WeatherCatV1.15B25,2013-03-15 11:35:00,
2013-03-15 04:40:00,48.8,42.2,30.05,NE,45,0.0,1.0,78,0.00,,,0.00,LWC V2.11 B50,2013-03-15 11:40:00,
2013-03-15 04:45:00,48.8,42.2,30.05,NE,45,0.0,1.0,78,0.00,,,0.00,WeatherCatV1.15B25,2013-03-15 11:45:00,
2013-03-15 04:50:00,48.8,42.2,30.05,NE,45,0.0,1.0,78,0.00,,,0.00,LWC V2.11 B50,2013-03-15 11:50:00,
2013-03-15 04:55:00,48.8,42.2,30.05,NE,45,0.0,1.0,78,0.00,,,0.00,WeatherCatV1.15B25,2013-03-15 11:55:00,
2013-03-15 05:00:00,48.8,42.2,30.05,NE,45,0.0,1.0,78,0.00,,,0.00,LWC V2.11 B50,2013-03-15 12:00:00,
2013-03-15 05:05:00,48.3,42.7,30.04,East,90,0.0,1.0,81,0.00,,,0.00,WeatherCatV1.15B25,2013-03-15 12:05:00,
2013-03-15 05:10:00,48.3,42.7,30.04,East,90,0.0,1.0,81,0.00,,,0.00,LWC V2.11 B50,2013-03-15 12:10:00,
2013-03-15 05:15:00,48.3,42.7,30.04,East,90,0.0,1.0,81,0.00,,,0.00,WeatherCatV1.15B25,2013-03-15 12:15:00,
2013-03-15 05:20:00,48.3,42.7,30.04,East,90,0.0,1.0,81,0.00,,,0.00,LWC V2.11 B50,2013-03-15 12:20:00,
2013-03-15 05:25:00,48.3,42.7,30.04,East,90,0.0,1.0,81,0.00,,,0.00,WeatherCatV1.15B25,2013-03-15 12:25:00,
2013-03-15 05:30:00,48.3,42.7,30.04,East,90,0.0,1.0,81,0.00,,,0.00,LWC V2.11 B50,2013-03-15 12:30:00,
2013-03-15 05:35:00,48.3,42.7,30.04,East,90,0.0,1.0,81,0.00,,,0.00,WeatherCatV1.15B25,2013-03-15 12:35:00,
2013-03-15 05:40:00,48.3,42.7,30.04,East,90,0.0,1.0,81,0.00,,,0.00,LWC V2.11 B50,2013-03-15 12:40:00,
2013-03-15 05:45:00,48.3,42.7,30.04,East,90,0.0,1.0,81,0.00,,,0.00,WeatherCatV1.15B25,2013-03-15 12:45:00,
2013-03-15 05:50:00,48.3,42.7,30.04,East,90,0.0,1.0,81,0.00,,,0.00,LWC V2.11 B50,2013-03-15 12:50:00,
2013-03-15 05:55:00,48.3,42.7,30.04,East,90,0.0,1.0,81,0.00,,,0.00,WeatherCatV1.15B25,2013-03-15 12:55:00,
2013-03-15 06:00:00,49.2,42.3,30.04,East,90,0.0,1.0,77,0.00,,,0.00,LWC V2.11 B50,2013-03-15 13:00:00,
2013-03-15 06:05:00,49.2,42.3,30.04,East,90,0.0,1.0,77,0.00,,,0.00,WeatherCatV1.15B25,2013-03-15 13:05:00,
2013-03-15 06:10:00,49.2,42.3,30.04,East,90,0.0,1.0,77,0.00,,,0.00,LWC V2.11 B50,2013-03-15 13:10:00,
2013-03-15 06:15:00,49.2,42.3,30.04,East,90,0.0,1.0,77,0.00,,,0.00,WeatherCatV1.15B25,2013-03-15 13:15:00,
2013-03-15 06:20:00,49.2,42.3,30.04,East,90,0.0,1.0,77,0.00,,,0.00,LWC V2.11 B50,2013-03-15 13:20:00,
2013-03-15 06:25:00,49.2,42.3,30.04,East,90,0.0,1.0,77,0.00,,,0.00,WeatherCatV1.15B25,2013-03-15 13:25:00,
2013-03-15 06:30:00,49.2,42.3,30.04,East,90,0.0,1.0,77,0.00,,,0.00,LWC V2.11 B50,2013-03-15 13:30:00,
2013-03-15 06:35:00,49.2,42.3,30.04,East,90,0.0,1.0,77,0.00,,,0.00,WeatherCatV1.15B25,2013-03-15 13:35:00,
2013-03-15 06:40:00,49.2,42.3,30.04,East,90,0.0,1.0,77,0.00,,,0.00,LWC V2.11 B50,2013-03-15 13:40:00,
2013-03-15 06:45:00,49.2,42.3,30.04,East,90,0.0,1.0,77,0.00,,,0.00,WeatherCatV1.15B25,2013-03-15 13:45:00,
2013-03-15 06:50:00,49.2,42.3,30.04,East,90,0.0,1.0,77,0.00,,,0.00,LWC V2.11 B50,2013-03-15 13:50:00,
2013-03-15 06:55:00,49.2,42.3,30.04,East,90,0.0,1.0,77,0.00,,,0.00,WeatherCatV1.15B25,2013-03-15 13:55:00,
2013-03-15 07:00:00,49.2,42.3,30.04,East,90,0.0,1.0,77,0.00,,,0.00,LWC V2.11 B50,2013-03-15 14:00:00,
2013-03-15 07:05:00,48.0,42.5,30.04,ENE,68,0.0,2.0,81,0.00,,,0.00,WeatherCatV1.15B25,2013-03-15 14:05:00,
2013-03-15 07:10:00,48.0,42.5,30.04,ENE,68,0.0,2.0,81,0.00,,,0.00,LWC V2.11 B50,2013-03-15 14:10:00,
2013-03-15 07:15:00,48.0,42.5,30.04,ENE,68,0.0,2.0,81,0.00,,,0.00,WeatherCatV1.15B25,2013-03-15 14:15:00,
2013-03-15 07:20:00,48.0,42.5,30.04,ENE,68,0.0,2.0,81,0.00,,,0.00,LWC V2.11 B50,2013-03-15 14:20:00,
2013-03-15 07:25:00,48.0,42.5,30.04,ENE,68,0.0,2.0,81,0.00,,,0.00,WeatherCatV1.15B25,2013-03-15 14:25:00,
2013-03-15 07:30:00,48.0,42.5,30.04,ENE,68,0.0,2.0,81,0.00,,,0.00,LWC V2.11 B50,2013-03-15 14:30:00,
2013-03-15 07:35:00,48.0,42.5,30.04,ENE,68,0.0,2.0,81,0.00,,,0.00,WeatherCatV1.15B25,2013-03-15 14:35:00,
2013-03-15 07:40:00,48.0,42.5,30.04,ENE,68,0.0,2.0,81,0.00,,,0.00,LWC V2.11 B50,2013-03-15 14:40:00,
2013-03-15 07:45:00,48.0,42.5,30.04,ENE,68,0.0,2.0,81,0.00,,,0.00,WeatherCatV1.15B25,2013-03-15 14:45:00,
2013-03-15 07:50:00,48.0,42.5,30.04,ENE,68,0.0,2.0,81,0.00,,,0.00,LWC V2.11 B50,2013-03-15 14:50:00,
2013-03-15 07:55:00,48.0,42.5,30.04,ENE,68,0.0,2.0,81,0.00,,,0.00,WeatherCatV1.15B25,2013-03-15 14:55:00,
2013-03-15 08:00:00,48.0,42.5,30.04,ENE,68,0.0,2.0,81,0.00,,,0.00,LWC V2.11 B50,2013-03-15 15:00:00,
2013-03-15 08:05:00,49.6,43.0,30.05,ENE,68,0.0,1.0,78,0.00,,,0.00,WeatherCatV1.15B25,2013-03-15 15:05:00,
2013-03-15 08:10:00,49.6,43.0,30.05,ENE,68,0.0,1.0,78,0.00,,,0.00,LWC V2.11 B50,2013-03-15 15:10:00,
2013-03-15 08:15:00,49.6,43.0,30.05,ENE,68,0.0,1.0,78,0.00,,,0.00,WeatherCatV1.15B25,2013-03-15 15:15:00,
2013-03-15 08:20:00,49.6,43.0,30.05,ENE,68,0.0,1.0,78,0.00,,,0.00,LWC V2.11 B50,2013-03-15 15:20:00,
2013-03-15 08:25:00,49.6,43.0,30.05,ENE,68,0.0,1.0,78,0.00,,,0.00,WeatherCatV1.15B25,2013-03-15 15:25:00,
2013-03-15 08:30:00,49.6,43.0,30.05,ENE,68,0.0,1.0,78,0.00,,,0.00,LWC V2.11 B50,2013-03-15 15:30:00,
2013-03-15 08:35:00,49.6,43.0,30.05,ENE,68,0.0,1.0,78,0.00,,,0.00,WeatherCatV1.15B25,2013-03-15 15:35:00,
2013-03-15 08:40:00,49.6,43.0,30.05,ENE,68,0.0,1.0,78,0.00,,,0.00,LWC V2.11 B50,2013-03-15 15:40:00,
2013-03-15 08:45:00,49.6,43.0,30.05,ENE,68,0.0,1.0,78,0.00,,,0.00,WeatherCatV1.15B25,2013-03-15 15:45:00,
2013-03-15 08:50:00,49.6,43.0,30.05,ENE,68,0.0,1.0,78,0.00,,,0.00,LWC V2.11 B50,2013-03-15 15:50:00,
2013-03-15 08:55:00,49.6,43.0,30.05,ENE,68,0.0,1.0,78,0.00,,,0.00,WeatherCatV1.15B25,2013-03-15 15:55:00,
2013-03-15 09:00:00,49.6,43.0,30.05,ENE,68,0.0,1.0,78,0.00,,,0.00,LWC V2.11 B50,2013-03-15 16:00:00,
2013-03-15 09:05:00,51.2,44.6,30.04,East,90,0.0,1.0,78,0.00,,,0.00,WeatherCatV1.15B25,2013-03-15 16:05:00,
2013-03-15 09:10:00,51.2,44.6,30.04,East,90,0.0,1.0,78,0.00,,,0.00,LWC V2.11 B50,2013-03-15 16:10:00,
2013-03-15 09:15:00,51.2,44.6,30.04,East,90,0.0,1.0,78,0.00,,,0.00,WeatherCatV1.15B25,2013-03-15 16:15:00,
2013-03-15 09:20:00,51.2,44.6,30.04,East,90,0.0,1.0,78,0.00,,,0.00,LWC V2.11 B50,2013-03-15 16:20:00,
2013-03-15 09:25:00,51.2,44.6,30.04,East,90,0.0,1.0,78,0.00,,,0.00,WeatherCatV1.15B25,2013-03-15 16:25:00,
2013-03-15 09:30:00,51.2,44.6,30.04,East,90,0.0,1.0,78,0.00,,,0.00,LWC V2.11 B50,2013-03-15 16:30:00,
2013-03-15 09:35:00,51.2,44.6,30.04,East,90,0.0,1.0,78,0.00,,,0.00,WeatherCatV1.15B25,2013-03-15 16:35:00,
2013-03-15 09:40:00,51.2,44.6,30.04,East,90,0.0,1.0,78,0.00,,,0.00,LWC V2.11 B50,2013-03-15 16:40:00,
2013-03-15 09:45:00,51.2,44.6,30.04,East,90,0.0,1.0,78,0.00,,,0.00,WeatherCatV1.15B25,2013-03-15 16:45:00,
2013-03-15 09:50:00,51.2,44.6,30.04,East,90,0.0,1.0,78,0.00,,,0.00,LWC V2.11 B50,2013-03-15 16:50:00,
2013-03-15 09:55:00,51.2,44.6,30.04,East,90,0.0,1.0,78,0.00,,,0.00,WeatherCatV1.15B25,2013-03-15 16:55:00,
2013-03-15 10:00:00,51.2,44.6,30.04,East,90,0.0,1.0,78,0.00,,,0.00,LWC V2.11 B50,2013-03-15 17:00:00,
2013-03-15 10:05:00,56.6,48.4,30.05,East,90,0.0,1.0,74,0.00,,,0.00,WeatherCatV1.15B25,2013-03-15 17:05:00,
2013-03-15 10:10:00,56.6,48.4,30.05,East,90,0.0,1.0,74,0.00,,,0.00,LWC V2.11 B50,2013-03-15 17:10:00,
2013-03-15 10:15:00,56.6,48.4,30.05,East,90,0.0,1.0,74,0.00,,,0.00,WeatherCatV1.15B25,2013-03-15 17:15:00,
2013-03-15 10:20:00,56.6,48.4,30.05,East,90,0.0,1.0,74,0.00,,,0.00,LWC V2.11 B50,2013-03-15 17:20:00,
2013-03-15 10:25:00,56.6,48.4,30.05,East,90,0.0,1.0,74,0.00,,,0.00,WeatherCatV1.15B25,2013-03-15 17:25:00,
2013-03-15 10:30:00,56.6,48.4,30.05,East,90,0.0,1.0,74,0.00,,,0.00,LWC V2.11 B50,2013-03-15 17:30:00,
2013-03-15 10:35:00,56.6,48.4,30.05,East,90,0.0,1.0,74,0.00,,,0.00,WeatherCatV1.15B25,2013-03-15 17:35:00,
2013-03-15 10:40:00,56.6,48.4,30.05,East,90,0.0,1.0,74,0.00,,,0.00,LWC V2.11 B50,2013-03-15 17:40:00,
2013-03-15 10:45:00,56.6,48.4,30.05,East,90,0.0,1.0,74,0.00,,,0.00,WeatherCatV1.15B25,2013-03-15 17:45:00,
2013-03-15 10:50:00,56.6,48.4,30.05,East,90,0.0,1.0,74,0.00,,,0.00,LWC V2.11 B50,2013-03-15 17:50:00,
2013-03-15 10:55:00,56.6,48.4,30.05,East,90,0.0,1.0,74,0.00,,,0.00,WeatherCatV1.15B25,2013-03-15 17:55:00,
2013-03-15 11:00:00,56.6,48.4,30.05,East,90,0.0,1.0,74,0.00,,,0.00,LWC V2.11 B50,2013-03-15 18:00:00,
2013-03-15 11:05:00,62.9,45.5,30.05,East,90,0.0,1.0,53,0.00,,,0.00,WeatherCatV1.15B25,2013-03-15 18:05:00,
2013-03-15 11:10:00,62.9,45.5,30.05,East,90,0.0,1.0,53,0.00,,,0.00,LWC V2.11 B50,2013-03-15 18:10:00,
2013-03-15 11:15:00,62.9,45.5,30.05,East,90,0.0,1.0,53,0.00,,,0.00,WeatherCatV1.15B25,2013-03-15 18:15:00,
2013-03-15 11:20:00,62.9,45.5,30.05,East,90,0.0,1.0,53,0.00,,,0.00,LWC V2.11 B50,2013-03-15 18:20:00,
2013-03-15 11:25:00,62.9,45.5,30.05,East,90,0.0,1.0,53,0.00,,,0.00,WeatherCatV1.15B25,2013-03-15 18:25:00,
2013-03-15 11:30:00,62.9,45.5,30.05,East,90,0.0,1.0,53,0.00,,,0.00,LWC V2.11 B50,2013-03-15 18:30:00,
2013-03-15 11:35:00,62.9,45.5,30.05,East,90,0.0,1.0,53,0.00,,,0.00,WeatherCatV1.15B25,2013-03-15 18:35:00,
2013-03-15 11:40:00,62.9,45.5,30.05,East,90,0.0,1.0,53,0.00,,,0.00,LWC V2.11 B50,2013-03-15 18:40:00,
2013-03-15 11:45:00,62.9,45.5,30.05,East,90,0.0,1.0,53,0.00,,,0.00,WeatherCatV1.15B25,2013-03-15 18:45:00,
2013-03-15 11:50:00,62.9,45.5,30.05,East,90,0.0,1.0,53,0.00,,,0.00,LWC V2.11 B50,2013-03-15 18:50:00,
2013-03-15 11:55:00,62.9,45.5,30.05,East,90,0.0,1.0,53,0.00,,,0.00,WeatherCatV1.15B25,2013-03-15 18:55:00,
2013-03-15 12:00:00,62.9,45.5,30.05,East,90,0.0,1.0,53,0.00,,,0.00,LWC V2.11 B50,2013-03-15 19:00:00,
2013-03-15 12:05:00,66.5,43.9,30.05,West,270,1.0,5.0,44,0.00,,,0.00,WeatherCatV1.15B25,2013-03-15 19:05:00,
2013-03-15 12:10:00,66.5,43.9,30.05,West,270,1.0,5.0,44,0.00,,,0.00,LWC V2.11 B50,2013-03-15 19:10:00,
2013-03-15 12:15:00,66.5,43.9,30.05,West,270,1.0,5.0,44,0.00,,,0.00,WeatherCatV1.15B25,2013-03-15 19:15:00,
2013-03-15 12:20:00,66.5,43.9,30.05,West,270,1.0,5.0,44,0.00,,,0.00,LWC V2.11 B50,2013-03-15 19:20:00,
2013-03-15 12:25:00,66.5,43.9,30.05,West,270,1.0,5.0,44,0.00,,,0.00,WeatherCatV1.15B25,2013-03-15 19:25:00,
2013-03-15 12:30:00,66.5,43.9,30.05,West,270,1.0,5.0,44,0.00,,,0.00,LWC V2.11 B50,2013-03-15 19:30:00,
2013-03-15 12:35:00,66.5,43.9,30.05,West,270,1.0,5.0,44,0.00,,,0.00,WeatherCatV1.15B25,2013-03-15 19:35:00,
2013-03-15 12:40:00,66.5,43.9,30.05,West,270,1.0,5.0,44,0.00,,,0.00,LWC V2.11 B50,2013-03-15 19:40:00,
2013-03-15 12:45:00,66.5,43.9,30.05,West,270,1.0,5.0,44,0.00,,,0.00,WeatherCatV1.15B25,2013-03-15 19:45:00,
2013-03-15 12:50:00,66.5,43.9,30.05,West,270,1.0,5.0,44,0.00,,,0.00,LWC V2.11 B50,2013-03-15 19:50:00,
2013-03-15 12:55:00,66.5,43.9,30.05,West,270,1.0,5.0,44,0.00,,,0.00,WeatherCatV1.15B25,2013-03-15 19:55:00,
2013-03-15 13:00:00,66.5,43.9,30.05,West,270,1.0,5.0,44,0.00,,,0.00,LWC V2.11 B50,2013-03-15 20:00:00,
2013-03-15 13:05:00,68.2,44.2,30.04,NNW,338,1.0,5.0,42,0.00,,,0.00,WeatherCatV1.15B25,2013-03-15 20:05:00,
2013-03-15 13:10:00,68.2,44.2,30.04,NNW,338,1.0,5.0,42,0.00,,,0.00,LWC V2.11 B50,2013-03-15 20:10:00,
2013-03-15 13:15:00,68.2,44.2,30.04,NNW,338,1.0,5.0,42,0.00,,,0.00,WeatherCatV1.15B25,2013-03-15 20:15:00,
2013-03-15 13:20:00,68.2,44.2,30.04,NNW,338,1.0,5.0,42,0.00,,,0.00,LWC V2.11 B50,2013-03-15 20:20:00,
2013-03-15 13:25:00,68.2,44.2,30.04,NNW,338,1.0,5.0,42,0.00,,,0.00,WeatherCatV1.15B25,2013-03-15 20:25:00,
2013-03-15 13:30:00,68.2,44.2,30.04,NNW,338,1.0,5.0,42,0.00,,,0.00,LWC V2.11 B50,2013-03-15 20:30:00,
2013-03-15 13:35:00,68.2,44.2,30.04,NNW,338,1.0,5.0,42,0.00,,,0.00,WeatherCatV1.15B25,2013-03-15 20:35:00,
2013-03-15 13:40:00,68.2,44.2,30.04,NNW,338,1.0,5.0,42,0.00,,,0.00,LWC V2.11 B50,2013-03-15 20:40:00,
2013-03-15 13:45:00,68.2,44.2,30.04,NNW,338,1.0,5.0,42,0.00,,,0.00,WeatherCatV1.15B25,2013-03-15 20:45:00,
2013-03-15 13:50:00,68.2,44.2,30.04,NNW,338,1.0,5.0,42,0.00,,,0.00,LWC V2.11 B50,2013-03-15 20:50:00,
2013-03-15 13:55:00,68.2,44.2,30.04,NNW,338,1.0,5.0,42,0.00,,,0.00,WeatherCatV1.15B25,2013-03-15 20:55:00,
2013-03-15 14:00:00,68.2,44.2,30.04,NNW,338,1.0,5.0,42,0.00,,,0.00,LWC V2.11 B50,2013-03-15 21:00:00,
2013-03-15 14:05:00,72.8,40.4,30.01,West,270,1.0,4.0,31,0.00,,,0.00,WeatherCatV1.15B25,2013-03-15 21:05:00,
2013-03-15 14:10:00,72.8,40.4,30.01,West,270,1.0,4.0,31,0.00,,,0.00,LWC V2.11 B50,2013-03-15 21:10:00,
2013-03-15 14:15:00,72.8,40.4,30.01,West,270,1.0,4.0,31,0.00,,,0.00,WeatherCatV1.15B25,2013-03-15 21:15:00,
2013-03-15 14:20:00,72.8,40.4,30.01,West,270,1.0,4.0,31,0.00,,,0.00,LWC V2.11 B50,2013-03-15 21:20:00,
2013-03-15 14:25:00,72.8,40.4,30.01,West,270,1.0,4.0,31,0.00,,,0.00,WeatherCatV1.15B25,2013-03-15 21:25:00,
2013-03-15 14:30:00,72.8,40.4,30.01,West,270,1.0,4.0,31,0.00,,,0.00,LWC V2.11 B50,2013-03-15 21:30:00,
2013-03-15 14:35:00,72.8,40.4,30.01,West,270,1.0,4.0,31,0.00,,,0.00,WeatherCatV1.15B25,2013-03-15 21:35:00,
2013-03-15 14:40:00,72.8,40.4,30.01,West,270,1.0,4.0,31,0.00,,,0.00,LWC V2.11 B50,2013-03-15 21:40:00,
2013-03-15 14:45:00,72.8,40.4,30.01,West,270,1.0,4.0,31,0.00,,,0.00,WeatherCatV1.15B25,2013-03-15 21:45:00,
2013-03-15 14:50:00,72.8,40.4,30.01,West,270,1.0,4.0,31,0.00,,,0.00,LWC V2.11 B50,2013-03-15 21:50:00,
2013-03-15 14:55:00,72.8,40.4,30.01,West,270,1.0,4.0,31,0.00,,,0.00,WeatherCatV1.15B25,2013-03-15 21:55:00,
2013-03-15 15:00:00,72.8,40.4,30.01,West,270,1.0,4.0,31,0.00,,,0.00,LWC V2.11 B50,2013-03-15 22:00:00,
2013-03-15 15:05:00,72.8,35.9,29.99,West,270,2.0,7.0,26,0.00,,,0.00,WeatherCatV1.15B25,2013-03-15 22:05:00,
2013-03-15 15:10:00,72.8,35.9,29.99,West,270,2.0,7.0,26,0.00,,,0.00,LWC V2.11 B50,2013-03-15 22:10:00,
2013-03-15 15:15:00,72.8,35.9,29.99,West,270,2.0,7.0,26,0.00,,,0.00,WeatherCatV1.15B25,2013-03-15 22:15:00,
2013-03-15 15:20:00,72.8,35.9,29.99,West,270,2.0,7.0,26,0.00,,,0.00,LWC V2.11 B50,2013-03-15 22:20:00,
2013-03-15 15:25:00,72.8,35.9,29.99,West,270,2.0,7.0,26,0.00,,,0.00,WeatherCatV1.15B25,2013-03-15 22:25:00,
2013-03-15 15:30:00,72.8,35.9,29.99,West,270,2.0,7.0,26,0.00,,,0.00,LWC V2.11 B50,2013-03-15 22:30:00,
2013-03-15 15:35:00,72.8,35.9,29.99,West,270,2.0,7.0,26,0.00,,,0.00,WeatherCatV1.15B25,2013-03-15 22:35:00,
2013-03-15 15:40:00,72.8,35.9,29.99,West,270,2.0,7.0,26,0.00,,,0.00,LWC V2.11 B50,2013-03-15 22:40:00,
2013-03-15 15:45:00,72.8,35.9,29.99,West,270,2.0,7.0,26,0.00,,,0.00,WeatherCatV1.15B25,2013-03-15 22:45:00,
2013-03-15 15:50:00,72.8,35.9,29.99,West,270,2.0,7.0,26,0.00,,,0.00,LWC V2.11 B50,2013-03-15 22:50:00,
2013-03-15 15:55:00,72.8,35.9,29.99,West,270,2.0,7.0,26,0.00,,,0.00,WeatherCatV1.15B25,2013-03-15 22:55:00,
2013-03-15 16:00:00,72.8,35.9,29.99,West,270,2.0,7.0,26,0.00,,,0.00,LWC V2.11 B50,2013-03-15 23:00:00,
2013-03-15 16:05:00,70.7,46.5,30.00,West,270,2.0,9.0,42,0.00,,,0.00,WeatherCatV1.15B25,2013-03-15 23:05:00,
2013-03-15 16:10:00,70.7,46.5,30.00,West,270,2.0,9.0,42,0.00,,,0.00,LWC V2.11 B50,2013-03-15 23:10:00,
2013-03-15 16:15:00,70.7,46.5,30.00,West,270,2.0,9.0,42,0.00,,,0.00,WeatherCatV1.15B25,2013-03-15 23:15:00,
2013-03-15 16:20:00,70.7,46.5,30.00,West,270,2.0,9.0,42,0.00,,,0.00,LWC V2.11 B50,2013-03-15 23:20:00,
2013-03-15 16:25:00,70.7,46.5,30.00,West,270,2.0,9.0,42,0.00,,,0.00,WeatherCatV1.15B25,2013-03-15 23:25:00,
2013-03-15 16:30:00,70.7,46.5,30.00,West,270,2.0,9.0,42,0.00,,,0.00,LWC V2.11 B50,2013-03-15 23:30:00,
2013-03-15 16:35:00,70.7,46.5,30.00,West,270,2.0,9.0,42,0.00,,,0.00,WeatherCatV1.15B25,2013-03-15 23:35:00,
2013-03-15 16:40:00,70.7,46.5,30.00,West,270,2.0,9.0,42,0.00,,,0.00,LWC V2.11 B50,2013-03-15 23:40:00,
2013-03-15 16:45:00,70.7,46.5,30.00,West,270,2.0,9.0,42,0.00,,,0.00,WeatherCatV1.15B25,2013-03-15 23:45:00,
2013-03-15 16:50:00,70.7,46.5,30.00,West,270,2.0,9.0,42,0.00,,,0.00,LWC V2.11 B50,2013-03-15 23:50:00,
2013-03-15 16:55:00,70.7,46.5,30.00,West,270,2.0,9.0,42,0.00,,,0.00,WeatherCatV1.15B25,2013-03-15 23:55:00,
2013-03-15 17:00:00,70.7,46.5,30.00,West,270,2.0,9.0,42,0.00,,,0.00,LWC V2.11 B50,2013-03-16 00:00:00,
2013-03-15 17:05:00,69.3,44.6,30.00,West,270,2.0,8.0,41,0.00,,,0.00,WeatherCatV1.15B25,2013-03-16 00:05:00,
2013-03-15 17:10:00,69.3,44.6,30.00,West,270,2.0,8.0,41,0.00,,,0.00,LWC V2.11 B50,2013-03-16 00:10:00,
2013-03-15 17:15:00,69.3,44.6,30.00,West,270,2.0,8.0,41,0.00,,,0.00,WeatherCatV1.15B25,2013-03-16 00:15:00,
2013-03-15 17:20:00,69.3,44.6,30.00,West,270,2.0,8.0,41,0.00,,,0.00,LWC V2.11 B50,2013-03-16 00:20:00,
2013-03-15 17:25:00,69.3,44.6,30.00,West,270,2.0,8.0,41,0.00,,,0.00,WeatherCatV1.15B25,2013-03-16 00:25:00,
2013-03-15 17:30:00,69.3,44.6,30.00,West,270,2.0,8.0,41,0.00,,,0.00,LWC V2.11 B50,2013-03-16 00:30:00,
2013-03-15 17:35:00,69.3,44.6,30.00,West,270,2.0,8.0,41,0.00,,,0.00,WeatherCatV1.15B25,2013-03-16 00:35:00,
2013-03-15 17:40:00,69.3,44.6,30.00,West,270,2.0,8.0,41,0.00,,,0.00,LWC V2.11 B50,2013-03-16 00:40:00,
2013-03-15 17:45:00,69.3,44.6,30.00,West,270,2.0,8.0,41,0.00,,,0.00,WeatherCatV1.15B25,2013-03-16 00:45:00,
2013-03-15 17:50:00,69.3,44.6,30.00,West,270,2.0,8.0,41,0.00,,,0.00,LWC V2.11 B50,2013-03-16 00:50:00,
2013-03-15 17:55:00,69.3,44.6,30.00,West,270,2.0,8.0,41,0.00,,,0.00,WeatherCatV1.15B25,2013-03-16 00:55:00,
2013-03-15 18:00:00,69.3,44.6,30.00,West,270,2.0,8.0,41,0.00,,,0.00,LWC V2.11 B50,2013-03-16 01:00:00,
2013-03-15 18:05:00,67.1,45.0,29.99,West,270,1.0,5.0,45,0.00,,,0.00,WeatherCatV1.15B25,2013-03-16 01:05:00,
2013-03-15 18:10:00,67.1,45.0,29.99,West,270,1.0,5.0,45,0.00,,,0.00,LWC V2.11 B50,2013-03-16 01:10:00,
2013-03-15 18:15:00,67.1,45.0,29.99,West,270,1.0,5.0,45,0.00,,,0.00,WeatherCatV1.15B25,2013-03-16 01:15:00,
2013-03-15 18:20:00,67.1,45.0,29.99,West,270,1.0,5.0,45,0.00,,,0.00,LWC V2.11 B50,2013-03-16 01:20:00,
2013-03-15 18:25:00,67.1,45.0,29.99,West,270,1.0,5.0,45,0.00,,,0.00,WeatherCatV1.15B25,2013-03-16 01:25:00,
2013-03-15 18:30:00,67.1,45.0,29.99,West,270,1.0,5.0,45,0.00,,,0.00,LWC V2.11 B50,2013-03-16 01:30:00,
2013-03-15 18:35:00,67.1,45.0,29.99,West,270,1.0,5.0,45,0.00,,,0.00,WeatherCatV1.15B25,2013-03-16 01:35:00,
2013-03-15 18:40:00,67.1,45.0,29.99,West,270,1.0,5.0,45,0.00,,,0.00,LWC V2.11 B50,2013-03-16 01:40:00,
2013-03-15 18:45:00,67.1,45.0,29.99,West,270,1.0,5.0,45,0.00,,,0.00,WeatherCatV1.15B25,2013-03-16 01:45:00,
2013-03-15 18:50:00,67.1,45.0,29.99,West,270,1.0,5.0,45,0.00,,,0.00,LWC V2.11 B50,2013-03-16 01:50:00,
2013-03-15 18:55:00,67.1,45.0,29.99,West,270,1.0,5.0,45,0.00,,,0.00,WeatherCatV1.15B25,2013-03-16 01:55:00,
2013-03-15 19:00:00,67.1,45.0,29.99,West,270,1.0,5.0,45,0.00,,,0.00,LWC V2.11 B50,2013-03-16 02:00:00,
2013-03-15 19:05:00,64.1,45.1,29.99,West,270,0.0,1.0,50,0.00,,,0.00,WeatherCatV1.15B25,2013-03-16 02:05:00,
2013-03-15 19:10:00,64.1,45.1,29.99,West,270,0.0,1.0,50,0.00,,,0.00,LWC V2.11 B50,2013-03-16 02:10:00,
2013-03-15 19:15:00,64.1,45.1,29.99,West,270,0.0,1.0,50,0.00,,,0.00,WeatherCatV1.15B25,2013-03-16 02:15:00,
2013-03-15 19:20:00,64.1,45.1,29.99,West,270,0.0,1.0,50,0.00,,,0.00,LWC V2.11 B50,2013-03-16 02:20:00,
2013-03-15 19:25:00,64.1,45.1,29.99,West,270,0.0,1.0,50,0.00,,,0.00,WeatherCatV1.15B25,2013-03-16 02:25:00,
2013-03-15 19:30:00,64.1,45.1,29.99,West,270,0.0,1.0,50,0.00,,,0.00,LWC V2.11 B50,2013-03-16 02:30:00,
2013-03-15 19:35:00,64.1,45.1,29.99,West,270,0.0,1.0,50,0.00,,,0.00,WeatherCatV1.15B25,2013-03-16 02:35:00,
2013-03-15 19:40:00,64.1,45.1,29.99,West,270,0.0,1.0,50,0.00,,,0.00,LWC V2.11 B50,2013-03-16 02:40:00,
2013-03-15 19:45:00,64.1,45.1,29.99,West,270,0.0,1.0,50,0.00,,,0.00,WeatherCatV1.15B25,2013-03-16 02:45:00,
2013-03-15 19:50:00,64.1,45.1,29.99,West,270,0.0,1.0,50,0.00,,,0.00,LWC V2.11 B50,2013-03-16 02:50:00,
2013-03-15 19:55:00,64.1,45.1,29.99,West,270,0.0,1.0,50,0.00,,,0.00,WeatherCatV1.15B25,2013-03-16 02:55:00,
2013-03-15 20:00:00,64.1,45.1,29.99,West,270,0.0,1.0,50,0.00,,,0.00,LWC V2.11 B50,2013-03-16 03:00:00,
2013-03-15 20:05:00,58.7,46.1,29.99,West,270,0.0,0.0,63,0.00,,,0.00,WeatherCatV1.15B25,2013-03-16 03:05:00,
2013-03-15 20:10:00,58.7,46.1,29.99,West,270,0.0,0.0,63,0.00,,,0.00,LWC V2.11 B50,2013-03-16 03:10:00,
2013-03-15 20:15:00,58.7,46.1,29.99,West,270,0.0,0.0,63,0.00,,,0.00,WeatherCatV1.15B25,2013-03-16 03:15:00,
2013-03-15 20:20:00,58.7,46.1,29.99,West,270,0.0,0.0,63,0.00,,,0.00,LWC V2.11 B50,2013-03-16 03:20:00,
2013-03-15 20:25:00,58.7,46.1,29.99,West,270,0.0,0.0,63,0.00,,,0.00,WeatherCatV1.15B25,2013-03-16 03:25:00,
2013-03-15 20:30:00,58.7,46.1,29.99,West,270,0.0,0.0,63,0.00,,,0.00,LWC V2.11 B50,2013-03-16 03:30:00,
2013-03-15 20:35:00,58.7,46.1,29.99,West,270,0.0,0.0,63,0.00,,,0.00,WeatherCatV1.15B25,2013-03-16 03:35:00,
2013-03-15 20:40:00,58.7,46.1,29.99,West,270,0.0,0.0,63,0.00,,,0.00,LWC V2.11 B50,2013-03-16 03:40:00,
2013-03-15 20:45:00,58.7,46.1,29.99,West,270,0.0,0.0,63,0.00,,,0.00,WeatherCatV1.15B25,2013-03-16 03:45:00,
2013-03-15 20:50:00,58.7,46.1,29.99,West,270,0.0,0.0,63,0.00,,,0.00,LWC V2.11 B50,2013-03-16 03:50:00,
2013-03-15 20:55:00,58.7,46.1,29.99,West,270,0.0,0.0,63,0.00,,,0.00,WeatherCatV1.15B25,2013-03-16 03:55:00,
2013-03-15 21:00:00,58.7,46.1,29.99,West,270,0.0,0.0,63,0.00,,,0.00,LWC V2.11 B50,2013-03-16 04:00:00,
2013-03-15 21:05:00,55.7,45.7,29.99,West,270,0.0,0.0,69,0.00,,,0.00,WeatherCatV1.15B25,2013-03-16 04:05:00,
2013-03-15 21:10:00,55.7,45.7,29.99,West,270,0.0,0.0,69,0.00,,,0.00,LWC V2.11 B50,2013-03-16 04:10:00,
2013-03-15 21:15:00,55.7,45.7,29.99,West,270,0.0,0.0,69,0.00,,,0.00,WeatherCatV1.15B25,2013-03-16 04:15:00,
2013-03-15 21:20:00,55.7,45.7,29.99,West,270,0.0,0.0,69,0.00,,,0.00,LWC V2.11 B50,2013-03-16 04:20:00,
2013-03-15 21:25:00,55.7,45.7,29.99,West,270,0.0,0.0,69,0.00,,,0.00,WeatherCatV1.15B25,2013-03-16 04:25:00,
2013-03-15 21:30:00,55.7,45.7,29.99,West,270,0.0,0.0,69,0.00,,,0.00,LWC V2.11 B50,2013-03-16 04:30:00,
2013-03-15 21:35:00,55.7,45.7,29.99,West,270,0.0,0.0,69,0.00,,,0.00,WeatherCatV1.15B25,2013-03-16 04:35:00,
2013-03-15 21:40:00,55.7,45.7,29.99,West,270,0.0,0.0,69,0.00,,,0.00,LWC V2.11 B50,2013-03-16 04:40:00,
2013-03-15 21:45:00,55.7,45.7,29.99,West,270,0.0,0.0,69,0.00,,,0.00,WeatherCatV1.15B25,2013-03-16 04:45:00,
2013-03-15 21:50:00,55.7,45.7,29.99,West,270,0.0,0.0,69,0.00,,,0.00,LWC V2.11 B50,2013-03-16 04:50:00,
2013-03-15 21:55:00,55.7,45.7,29.99,West,270,0.0,0.0,69,0.00,,,0.00,WeatherCatV1.15B25,2013-03-16 04:55:00,
2013-03-15 22:00:00,55.7,45.7,29.99,West,270,0.0,0.0,69,0.00,,,0.00,LWC V2.11 B50,2013-03-16 05:00:00,
2013-03-15 22:05:00,53.0,42.7,29.99,West,270,0.0,0.0,68,0.00,,,0.00,WeatherCatV1.15B25,2013-03-16 05:05:00,
2013-03-15 22:10:00,53.0,42.7,29.99,West,270,0.0,0.0,68,0.00,,,0.00,LWC V2.11 B50,2013-03-16 05:10:00,
2013-03-15 22:15:00,53.0,42.7,29.99,West,270,0.0,0.0,68,0.00,,,0.00,WeatherCatV1.15B25,2013-03-16 05:15:00,
2013-03-15 22:20:00,53.0,42.7,29.99,West,270,0.0,0.0,68,0.00,,,0.00,LWC V2.11 B50,2013-03-16 05:20:00,
2013-03-15 22:25:00,53.0,42.7,29.99,West,270,0.0,0.0,68,0.00,,,0.00,WeatherCatV1.15B25,2013-03-16 05:25:00,
2013-03-15 22:30:00,53.0,42.7,29.99,West,270,0.0,0.0,68,0.00,,,0.00,LWC V2.11 B50,2013-03-16 05:30:00,
2013-03-15 22:35:00,53.0,42.7,29.99,West,270,0.0,0.0,68,0.00,,,0.00,WeatherCatV1.15B25,2013-03-16 05:35:00,
2013-03-15 22:40:00,53.0,42.7,29.99,West,270,0.0,0.0,68,0.00,,,0.00,LWC V2.11 B50,2013-03-16 05:40:00,
2013-03-15 22:45:00,53.0,42.7,29.99,West,270,0.0,0.0,68,0.00,,,0.00,WeatherCatV1.15B25,2013-03-16 05:45:00,
2013-03-15 22:50:00,53.0,42.7,29.99,West,270,0.0,0.0,68,0.00,,,0.00,LWC V2.11 B50,2013-03-16 05:50:00,
2013-03-15 22:55:00,53.0,42.7,29.99,West,270,0.0,0.0,68,0.00,,,0.00,WeatherCatV1.15B25,2013-03-16 05:55:00,
2013-03-15 23:00:00,53.0,42.7,29.99,West,270,0.0,0.0,68,0.00,,,0.00,LWC V2.11 B50,2013-03-16 06:00:00,
2013-03-15 23:05:00,52.0,42.5,30.01,West,270,0.0,0.0,70,0.00,,,0.00,WeatherCatV1.15B25,2013-03-16 06:05:00,
2013-03-15 23:10:00,52.0,42.5,30.01,West,270,0.0,0.0,70,0.00,,,0.00,LWC V2.11 B50,2013-03-16 06:10:00,
2013-03-15 23:15:00,52.0,42.5,30.01,West,270,0.0,0.0,70,0.00,,,0.00,WeatherCatV1.15B25,2013-03-16 06:15:00,
2013-03-15 23:20:00,52.0,42.5,30.01,West,270,0.0,0.0,70,0.00,,,0.00,LWC V2.11 B50,2013-03-16 06:20:00,
2013-03-15 23:25:00,52.0,42.5,30.01,West,270,0.0,0.0,70,0.00,,,0.00,WeatherCatV1.15B25,2013-03-16 06:25:00,
2013-03-15 23:30:00,52.0,42.5,30.01,West,270,0.0,0.0,70,0.00,,,0.00,LWC V2.11 B50,2013-03-16 06:30:00,
2013-03-15 23:35:00,52.0,42.5,30.01,West,270,0.0,0.0,70,0.00,,,0.00,WeatherCatV1.15B25,2013-03-16 06:35:00,
2013-03-15 23:40:00,52.0,42.5,30.01,West,270,0.0,0.0,70,0.00,,,0.00,LWC V2.11 B50,2013-03-16 06:40:00,
2013-03-15 23:45:00,52.0,42.5,30.01,West,270,0.0,0.0,70,0.00,,,0.00,WeatherCatV1.15B25,2013-03-16 06:45:00,
2013-03-15 23:50:00,52.0,42.5,30.01,West,270,0.0,0.0,70,0.00,,,0.00,LWC V2.11 B50,2013-03-16 06:50:00,
2013-03-15 23:55:00,52.0,42.5,30.01,West,270,0.0,0.0,70,0.00,,,0.00,WeatherCatV1.15B25,2013-03-16 06:55:00,